"Pseudo-MPEC" for P10OT5o

Created 2019 Jun 15 19:08:53 UT using Find_Orb

Click here for an explanation of pseudo-MPECs

 
 Astrometry: 
     P10OT5o  C2019 05 01x3?R=AyB_v6_r-Rf'lKIVYUo1K!5,63s/e7*dYCao]YV5][K_+[:F51
     P10OT5o  C2019 05 01PP?+eKAxEP65(oXC;Wu*WXf(K=6em@+x_0t^UJVk_^:r(Y39.pf^F51
     P10OT5o  C2019 05 01R^/oOtoY:Uj4my9IERa_JC8\LVRm:^+#-ZwI*1_!,,EUER_V:#nvF51
     P10OT5o  C2019 05 27*$)Qrg\AstrometryuuqMD!^:_IF9HU9KxWeUKb_*Ej2'xaxK`S/F52
     P10OT5o  C2019 05 30GHKmatTNMR+m.1/G;TlqfsoNKt4X)j%+LmjN!UT$i1c^eUU,(KZSF52
     P10OT5o  C2019 05 30EH1)8j4.[xD]=TkuV-dhpHS#_.(s(uMehrSv4iuYlredacted;3qF52
     P10OT5o  C2019 05 30gC$+1NS?.0XqmR3O':no2GFG6uZgGg.jkmVtu(0SyW_f`A'T6m\nF52
     P10OT5o  C2019 05 30l1(cROP`tv-Pp-%R2,OLL6m-j]!Fto9+RV^',xU\,_,9_1QclickF52
     P10OT5o  C2019 06 01Ea#qQJ%A-B'O53[kqcQorhU2toP3'XA^*r./npi6wr%dTp5q!_CiF51
     P10OT5o  C2019 06 01:U/,Q6g0WL:*4#x^Fh\mLc6CugbiBy(WipABhere5*08\o^J+W=_F51
     P10OT5o  C2019 06 01)ZO'y$HanDgmMD6w@6sUu)nWR,(7=yw!ZL\3Q*fortE(;lU9(,YrF51
     P10OT5o  C2019 06 01%5G/]Y;C;Sa:PbtVx--([,0vR@j4I-,8.;ugV?(cZCmvqJtY1Vn@F51
     P10OT5o  C2019 06 09kp:5_A^lMwThLBxE$%!/!M3O,E+=LEgf4L-srZJMPIUvMq!OZWn,F51
     P10OT5o  C2019 06 09b98VC*Pp8#hL'o)X^Tl//uifQ]smPec`)%*30T%gv,Il5'dM5V\DF51
     P10OT5o  C2019 06 09+%e\c^)m#mT`L8s6lS$B9'hN.SUwc7Ao,+YD5M!('a.?5EeB#-[*F51
     P10OT5o  C2019 06 09Pcl)il/d;KK!_explanationI62Krmf2!%QC(8XfhuXK9!rHf3NkF51

Station data:
(F51) Pan-STARRS 1, Haleakala  (N20.707235 W156.255910)  US/Hawaii.
   Observers N. Primak, A. Schultz, S. Watters, J. Thiel, T. Goggia. Measurer
   PS1 Science Consortium. 1.8-m Ritchey-Chrétien + CCD.
(F52) Pan-STARRS 2, Haleakala  (N20.707384 W156.255910)  US/Hawaii. 1.8-m
   Ritchey-Chrétien + CCD.

Orbital elements:  P10OT5o
   Perihelion 2020 Sep 14.372591 +/- 0.241 TT =  8:56:31 (JD 2459106.872591)
Epoch 2019 Jun  9.0 TT = JDT 2458643.5   Earth MOID: 0.7505   AutoNEOCP
M 184.84836231 +/- 0.10             (J2000 ecliptic)
n   0.37799309 +/- 2.63e-5          Peri.  325.94006 +/- 0.07
a   1.89443688 +/- 8.78e-5          Node   102.83616 +/- 0.0053
e   0.0944095 +/- 4.46e-5           Incl.   23.65907 +/- 0.0050
P   2.61/952.38d           H 19.8   G  0.15   U  5.7  
q 1.71558391 +/- 3.84e-5    Q 2.07328985 +/- 0.000176
From 16 observations 2019 May 1-June 9; mean residual 0".16
Residuals in arcseconds: 
190501 F51  .01+  .00     190530 F52  .04+  .58-    190609 F51  .08+  .05+    
190501 F51  .01-  .11+    190530 F52  .28+  .41+    190609 F51  .12-  .14-    
190501 F51  .02+  .12-    190601 F51  .03-  .02+    190609 F51  .03+  .01+    
190527 F52  .17-  .04-    190601 F51  .00   .10+    190609 F51  .02-  .00     
190530 F52  .07-  .21+    190601 F51  .09-  .07+    
190530 F52  .05+  .15-    190601 F51  .11+  .08+    

Ephemerides (geocentric):
Date (UTC) HH   RA              Dec         delta   r     elong  mag " sig PA
---- -- -- --  -------------   -----------  ------ ------ -----  --- ---- ---
2019 06 15 19  16 45 02.604   -01 32 55.54  1.1058 2.0720 155.2 22.3 .415 139
2019 06 15 20  16 44 59.261   -01 33 27.86  1.1059 2.0720 155.1 22.3 .417 139
2019 06 15 21  16 44 55.920   -01 34 00.19  1.1060 2.0720 155.1 22.3 .419 139
2019 06 15 22  16 44 52.580   -01 34 32.56  1.1060 2.0720 155.1 22.3 .421 139
2019 06 15 23  16 44 49.241   -01 35 04.95  1.1061 2.0720 155.1 22.3 .423 139
2019 06 16 00  16 44 45.905   -01 35 37.36  1.1062 2.0720 155.1 22.3 .426 139
2019 06 16 01  16 44 42.569   -01 36 09.80  1.1063 2.0720 155.0 22.3 .428 139
2019 06 16 02  16 44 39.235   -01 36 42.27  1.1063 2.0720 155.0 22.3 .430 139
2019 06 16 03  16 44 35.903   -01 37 14.76  1.1064 2.0720 155.0 22.3 .432 139
2019 06 16 04  16 44 32.572   -01 37 47.28  1.1065 2.0720 155.0 22.3 .434 138
2019 06 16 05  16 44 29.243   -01 38 19.82  1.1066 2.0720 155.0 22.4 .436 138
2019 06 16 06  16 44 25.915   -01 38 52.38  1.1067 2.0720 154.9 22.4 .439 138
2019 06 16 07  16 44 22.589   -01 39 24.98  1.1067 2.0720 154.9 22.4 .441 138
2019 06 16 08  16 44 19.265   -01 39 57.59  1.1068 2.0720 154.9 22.4 .443 138
2019 06 16 09  16 44 15.942   -01 40 30.24  1.1069 2.0720 154.9 22.4 .445 138
2019 06 16 10  16 44 12.620   -01 41 02.90  1.1070 2.0720 154.8 22.4 .447 138
2019 06 16 11  16 44 09.300   -01 41 35.60  1.1071 2.0720 154.8 22.4 .450 138
2019 06 16 12  16 44 05.982   -01 42 08.31  1.1071 2.0719 154.8 22.4 .452 138
2019 06 16 13  16 44 02.666   -01 42 41.06  1.1072 2.0719 154.8 22.4 .454 137
2019 06 16 14  16 43 59.351   -01 43 13.82  1.1073 2.0719 154.8 22.4 .456 137
2019 06 16 15  16 43 56.037   -01 43 46.62  1.1074 2.0719 154.7 22.4 .459 137
2019 06 16 16  16 43 52.726   -01 44 19.43  1.1075 2.0719 154.7 22.4 .461 137
2019 06 16 17  16 43 49.416   -01 44 52.27  1.1075 2.0719 154.7 22.4 .463 137
2019 06 16 18  16 43 46.107   -01 45 25.14  1.1076 2.0719 154.7 22.4 .465 137
2019 06 16 19  16 43 42.800   -01 45 58.03  1.1077 2.0719 154.7 22.4 .468 137
2019 06 16 20  16 43 39.495   -01 46 30.95  1.1078 2.0719 154.6 22.4 .470 137
2019 06 16 21  16 43 36.192   -01 47 03.89  1.1079 2.0719 154.6 22.4 .472 137
2019 06 16 22  16 43 32.890   -01 47 36.85  1.1080 2.0719 154.6 22.4 .474 137
2019 06 16 23  16 43 29.590   -01 48 09.84  1.1080 2.0719 154.6 22.4 .477 136
2019 06 17 00  16 43 26.291   -01 48 42.86  1.1081 2.0719 154.5 22.4 .479 136
2019 06 17 01  16 43 22.994   -01 49 15.89  1.1082 2.0719 154.5 22.4 .481 136
2019 06 17 02  16 43 19.699   -01 49 48.96  1.1083 2.0719 154.5 22.4 .484 136
2019 06 17 03  16 43 16.406   -01 50 22.04  1.1084 2.0719 154.5 22.4 .486 136
2019 06 17 04  16 43 13.114   -01 50 55.16  1.1085 2.0719 154.4 22.4 .488 136
2019 06 17 05  16 43 09.824   -01 51 28.29  1.1086 2.0719 154.4 22.4 .491 136
2019 06 17 06  16 43 06.536   -01 52 01.45  1.1087 2.0718 154.4 22.4 .493 136
2019 06 17 07  16 43 03.249   -01 52 34.64  1.1087 2.0718 154.4 22.4 .495 136
2019 06 17 08  16 42 59.964   -01 53 07.84  1.1088 2.0718 154.4 22.4 .498 136
2019 06 17 09  16 42 56.681   -01 53 41.08  1.1089 2.0718 154.3 22.4 .500 135
2019 06 17 10  16 42 53.400   -01 54 14.33  1.1090 2.0718 154.3 22.4 .502 135
2019 06 17 11  16 42 50.120   -01 54 47.61  1.1091 2.0718 154.3 22.4 .505 135
2019 06 17 12  16 42 46.842   -01 55 20.92  1.1092 2.0718 154.3 22.4 .507 135
2019 06 17 13  16 42 43.566   -01 55 54.24  1.1093 2.0718 154.2 22.4 .509 135
2019 06 17 14  16 42 40.291   -01 56 27.60  1.1094 2.0718 154.2 22.4 .512 135
2019 06 17 15  16 42 37.019   -01 57 00.97  1.1095 2.0718 154.2 22.4 .514 135
2019 06 17 16  16 42 33.748   -01 57 34.37  1.1096 2.0718 154.2 22.4 .517 135
2019 06 17 17  16 42 30.479   -01 58 07.80  1.1096 2.0718 154.1 22.4 .519 135
2019 06 17 18  16 42 27.212   -01 58 41.24  1.1097 2.0718 154.1 22.4 .521 135